STARLINK-32456, 62041

Orbit data source: Space-Track

STARLINK-32456, 62041 is a payload satellite owned by SpaceX/Seattle (US) in LEO that was launched on Thu, 21 Nov 2024 UTC via an FALCON 9 launch vehicle from the Air Force Eastern Test Range (AFETR). Payloads include a variety of satellites, spacecraft, and rockets equipped with specific instruments for various scientific and technological missions. These include communications satellites like Starlink; space stations such as the ISS; scientific satellites like the Hubble; Earth observation satellites from companies like Planet Labs, Umbra, and HawkEye 360; GPS; miniature CubeSats for education and research; and military/defense satellites.

Loading next visibility...
STARLINK-32456 details
Identifier
62041, 2024-216K
Orbit
LEO
Last TLE update11 hours ago
Origin
Flag of USSpaceX/Seattle (US)
ManufacturerSpaceX/Seattle
MissionOperational spacecraft
Bus & MotorSTARLINK V2M, Unknown motor
Mass730 kg wet, ~700 kg dry
Launch date (UTC)
2024-11-21 (3 weeks ago)
Launch vehicle
FALCON 9
Launch site
Air Force Eastern Test Range (AFETR)
Object type
Payload
Rocket body
Debris
Shape & HBRUnknown
Radar Cross SectionLarge (>1 m²)

Expand to show TLE details & history

TLE from 11 hours ago
0 STARLINK-32456
1 62041U 24216K   24348.50002315 -.00007514  00000-0 -12235-3 0  9990
2 62041  42.9997 307.3826 0001174 275.6366 191.8617 15.50588096  4422
Epoch: 2024-12-13T12:00Z
Definitive object data (Epoch: 2024-12-13T12:00:02Z)
Latitude40.72842°
Longitude158.04861°
Altitude418.395 km
Speed7.666 km/s
True Right ascension04h 02m 53s
True Declination40° 32' 60"
Sunlit
Object was in full shadow at TLE epoch
Visualization TLE readout
Latitude40.03184°
Longitude158.45325°
Altitude418.268 km
Speed7.666 km/s
Apparent Right ascension06h 37m 20s
Apparent Declination2° 03' 08"
Sunlit
Object is in full shadow
Visualization observer readout
Local Sidereal Time21:21:55
Azimuth52.182° ENE
Elevation-33.658°
Doppler factor1
Orbital elements
Apogee altitude417.77 km
Perigee altitude416.175 km
Semi-major axis6,795.11 km
Eccentricity0.0001174
Inclination42.9997°
RAAN307.3826°
Arg. of periapsis275.6366°
True anomaly191.85894°
Mean anomaly191.8617°
Eccentric anomaly191.86032°
Mean motion3.87479 °/min
BSTAR-0.00012235
Orbital period92.91 mins
Loading maneuver chart data...
Loading historical data...
Loading historical data...
Loading historical data...
Loading historical data...
Loading historical data...
Loading historical data...
Loading historical data...

STARLINK-32456 Visibility forecast

Observer location: undefined°, undefined

Span
Click to sort rows by Start time (UTC) header in descending order
Start Az.
Max El. time (UTC)
Max El. Az.
Max El.
End time (UTC)
End Az.
4 mins2024-12-14 01:42:57.422Z241.221° WSW2024-12-14 01:44:57.422Z98.77° ESE42.101°2024-12-14 01:46:57.422Z74.779° E
5 mins2024-12-14 03:19:57.422Z286.829° WNW2024-12-14 03:21:57.422Z345.4° N36.515°2024-12-14 03:24:57.422Z70.951° E
5 mins2024-12-14 04:57:57.422Z295.218° NW2024-12-14 04:59:57.422Z41.671° NE42.486°2024-12-14 05:02:57.422Z98.242° ESE
4 mins2024-12-14 06:35:57.422Z246.111° WSW2024-12-14 06:36:57.422Z213.374° SW26.683°2024-12-14 06:39:57.422Z147.468° SSE
|